Preview of NWS' New Version of Forecast
This preview is not operational and should not be used for support decisions.

Regional Weather Roundup (RWR)

Issued by Philadelphia/Mt Holly (PHI)

                            
000
ASUS41 KPHI 180512
RWRPHI

REGIONAL WEATHER ROUNDUP
NATIONAL WEATHER SERVICE MOUNT HOLLY NJ
100 AM EDT WED SEP 18 2019

NOTE:  "FAIR" INDICATES FEW OR NO CLOUDS BELOW 12,000 FEET WITH NO
SIGNIFICANT WEATHER AND/OR OBSTRUCTIONS TO VISIBILITY.

 * = STATION DOES NOT REPORT PRECIPITATION (E.G. RAIN, SNOW, ETC.) 
        OR FOG.

NJZ015>026-180600-
SOUTHERN NEW JERSEY
  
CITY           SKY/WX    TMP DP  RH WIND       PRES   REMARKS
POMONA         FAIR      57  51  80 NW3       30.13R                  
WILDWOOD*      FAIR      55  51  86 CALM      30.14R                  
MILLVILLE      FAIR      52  49  89 CALM      30.14R                  
MOUNT HOLLY    FAIR      54  52  93 CALM      30.15R                  
TRENTON        FAIR      57  46  66 N3        30.15S                  

$$
NJZ001>014-180600-
NORTHERN NEW JERSEY
  
CITY           SKY/WX    TMP DP  RH WIND       PRES   REMARKS
SUSSEX         FAIR      48  46  93 CALM      30.19S                  
ANDOVER*         N/A     51  49  92 CALM      30.19R                  
MORRISTOWN     FAIR      48  48 100 CALM      30.16S                  
NEWARK         FAIR      59  46  62 N7        30.15S                  
TETERBORO      FAIR      60  46  59 N3        30.15S                  
CALDWELL       FAIR      56  47  71 E3        30.17S                  
SOMERVILLE     FAIR      53  50  89 NW3       30.15R                  
ALLAIRE*       FAIR      57  52  83 CALM      30.16S                  
TOMS RIVER*    FAIR      50  32  50 CALM      30.15R                  

$$
PAZ043-044-047-054-055-060>062-066>071-180600-
EASTERN PENNSYLVANIA
  
CITY           SKY/WX    TMP DP  RH WIND       PRES   REMARKS
PHILADELPHIA   FAIR      63  54  72 SE3       30.16R                  
NORTH PHILA    FAIR      60  49  66 CALM      30.16S                  
BLUE BELL*     FAIR      51  50  98 CALM      30.16S                  
DOYLESTOWN     FAIR      57  48  72 CALM      30.15S                  
QUAKERTOWN*    CLEAR     52  52 100 CALM      30.17R                  
PERKASIE*      FAIR      52  52 100 CALM      30.17S                  
POTTSTOWN      FAIR      53  51  93 CALM      30.17S                  
LANCASTER      FAIR      63  47  55 NE8       30.15S                  
COATESVILLE    FAIR      55  54  94 CALM      30.17S                  
WEST CHESTER   FAIR      59  50  72 CALM      30.16R                  
READING        FAIR      57  52  83 N6        30.15S                  
ALLENTOWN      FAIR      59  46  62 CALM      30.17S                  
QN CITY/ALNTWN FAIR      57  52  82 CALM      30.18S                  
MOUNT POCONO   FAIR      49  44  83 N5        30.21S                  
HAZLETON       FAIR      55  43  62 N3        30.23S                  
LEHIGHTON      FAIR      46  46 100 CALM      30.20S                  
WILKES BARRE   FAIR      52  47  83 E6        30.20S                  

$$
DEZALL-MDZ008-012-015-019-020-180600-
DELAWARE AND EASTERN MARYLAND
  
CITY           SKY/WX    TMP DP  RH WIND       PRES   REMARKS
WILMINGTON     FAIR      60  56  86 CALM      30.15R                  
CHESWOLD       CLEAR     55  54  94 CALM      30.13R                  
GEORGETOWN     FAIR      56  54  93 CALM      30.13R                  
EASTON         FAIR      58  55  91 CALM      30.16S                  
STEVENSVILLE   FAIR      59  55  88 CALM      30.13R                  
PATUXENT       FAIR      63  53  70 E7        30.11S                  
OCEAN CITY     FAIR      68  53  58 E9        30.11S                  
WALLOPS ISLAND FAIR      62  54  74 N6        30.10S                  
CAMBRIDGE      CLEAR     55  54  94 CALM      30.12R                  
SALISBURY      FAIR      56  52  86 CALM      30.12R                  

$$
PAZ001-021-NYZ056-072-MDZ011-DCZ001-180600-
OTHER NEARBY LOCATIONS
  
CITY           SKY/WX    TMP DP  RH WIND       PRES   REMARKS
HARRISBURG     FAIR      64  51  62 N3        30.15S                  
WILLIAMSPORT   FAIR      54  51  90 W5        30.19S                  
BINGHAMTON     FAIR      51  45  79 NE6       30.22S                  
NEW YORK CITY  FAIR      64  54  69 VRB5      30.18S                  
BALTIMORE      FAIR      62  57  83 CALM      30.13S                  
WASHINGTON DC  MOCLDY    68  59  73 E3        30.13R                  

$$